Location: Anton
(37.3520°N, 87.3947°W)
Time: 05:24:45
(UTC+00:00)

BlueWalker 3 - Visible Passes

Search period start: 02 December 2022 00:00
Search period end: 12 December 2022 00:00
Orbit: 500 x 519 km, 53.2° (Epoch: 01 December)

Date Brightness Start Highest point End Pass type
(mag) Time Alt. Az. Time Alt. Az. Time Alt. Az.
07 Dec 4.3 00:24:56 10° NNW 00:25:51 14° N 00:25:51 14° N visible
08 Dec 3.7 00:06:29 10° NNW 00:08:29 19° N 00:08:29 19° N visible
08 Dec 3.3 23:48:01 10° NNW 23:51:08 22° NNE 23:51:15 22° NNE visible
09 Dec 3.2 23:29:33 10° NNW 23:32:44 23° NNE 23:34:12 19° ENE visible
10 Dec 4.5 01:07:49 10° WNW 01:09:05 19° WNW 01:09:05 19° WNW visible
10 Dec 3.1 23:11:05 10° NNW 23:14:21 25° NNE 23:17:26 11° E visible
11 Dec 3.3 00:49:25 10° WNW 00:52:20 38° W 00:52:20 38° W visible
